Berlin, NH

3:40 PM EDT on August 20, 2017 (GMT -0400)
Berlin Municipal

Weather History for KBML - February, 2004

Change the Weather History Date:

Thursday, February 5, 2004

  Actual Average Record
Temperature  
Mean Temperature 16 °F -  
Max Temperature 21 °F 26 °F 46 °F (2005)
Min Temperature 10 °F 1 °F -20 °F (2000)
Degree Days  
Heating Degree Days 50    
Moisture  
Dew Point 7 °F    
Average Humidity 66    
Maximum Humidity 86    
Minimum Humidity 46    
Precipitation  
Precipitation 0.00 in - - ()
Sea Level Pressure  
Sea Level Pressure 30.31 in    
Wind  
Wind Speed 12 mph (WNW)    
Max Wind Speed 22 mph    
Max Gust Speed 34 mph    
Visibility 6 miles    
Events Fog , Snow    
Averages and records for this station are not official NWS values.
T = Trace of Precipitation, MM = Missing Value Source: NWS Daily Summary

Daily Weather History Graph

Daily Weather History Graph

Search for Another Location

Airport or City:

Trip Planner

Search our weather history database for the weather conditions in past years. The results will help you decide how hot, cold, wet, or windy it might be!

Date:

Astronomy

Feb. 05, 2004 Rise Set
Actual Time 6:59 AM EST 4:58 PM EST
Civil Twilight 6:28 AM EST 5:29 PM EST
Nautical Twilight 5:54 AM EST 6:03 PM EST
Astronomical Twilight 5:20 AM EST 6:38 PM EST
Moon 4:06 PM EST (2/5) 7:04 AM EST (2/5)
Length of Visible Light 11h 00m
Length of Day
9h 59m
Full, 100% of the Moon is Illuminated
Feb 5
Full
Feb 6
Full
Feb 13
Last Quarter
Feb 20
New
Feb 27
First Quarter

Hourly Weather History & Observations

Time (EST) Temp. Windchill Dew Point Humidity Pressure Visibility Wind Dir Wind Speed Gust Speed Precip Events Conditions
12:02 AM 17.6 °F 4.3 °F 14.0 °F 86% 30.13 in 0.5 mi WNW 12.7 mph 21.9 mph 0.00 in Fog , Snow Snow
12:09 AM 17.6 °F 5.0 °F 14.0 °F 86% 30.13 in 0.5 mi WNW 11.5 mph 25.3 mph 0.00 in Fog , Snow Snow
12:17 AM 17.6 °F 5.7 °F 12.2 °F 79% 30.14 in 1.5 mi WNW 10.4 mph 23.0 mph 0.00 in Snow Light Snow
12:27 AM 17.6 °F 6.4 °F 12.2 °F 79% 30.14 in 1.5 mi WNW 9.2 mph 23.0 mph 0.00 in Snow Light Snow
12:32 AM 17.6 °F 6.4 °F 10.4 °F 73% 30.14 in 2.0 mi WNW 9.2 mph 20.7 mph 0.00 in Snow Light Snow
12:44 AM 17.6 °F 5.0 °F 10.4 °F 73% 30.14 in 1.2 mi WNW 11.5 mph 20.7 mph 0.00 in Snow Light Snow
12:52 AM 17.1 °F 3.6 °F 10.9 °F 77% 30.20 in 1.8 mi WNW 12.7 mph 19.6 mph 0.00 in Snow Light Snow
12:57 AM 17.6 °F 5.0 °F 10.4 °F 73% 30.14 in 3.0 mi WNW 11.5 mph 19.6 mph 0.00 in Snow Light Snow
1:13 AM 17.6 °F 5.0 °F 6.8 °F 63% 30.14 in 3.0 mi WNW 11.5 mph 27.6 mph 0.00 in   Overcast
1:37 AM 17.6 °F 5.7 °F 8.6 °F 68% 30.14 in 5.0 mi WNW 10.4 mph 18.4 mph 0.00 in Snow Light Snow
1:43 AM 17.6 °F 5.7 °F 10.4 °F 73% 30.15 in 1.8 mi WNW 10.4 mph 19.6 mph 0.00 in Snow Light Snow
1:52 AM 17.1 °F 5.8 °F 10.0 °F 74% 30.21 in 2.0 mi WNW 9.2 mph 18.4 mph 0.00 in Snow Light Snow
2:02 AM 17.6 °F 5.0 °F 8.6 °F 68% 30.15 in 4.0 mi WNW 11.5 mph 19.6 mph 0.00 in Snow Light Snow
2:14 AM 17.6 °F 6.4 °F 8.6 °F 68% 30.15 in 5.0 mi West 9.2 mph 17.3 mph 0.00 in Snow Light Snow
2:44 AM 17.6 °F 5.7 °F 6.8 °F 63% 30.16 in 2.5 mi WNW 10.4 mph 33.4 mph 0.00 in Snow Light Snow
2:52 AM 17.1 °F 2.5 °F 8.1 °F 68% 30.22 in 6.0 mi WNW 15.0 mph 24.2 mph 0.00 in   Haze
3:03 AM 17.6 °F 5.7 °F 8.6 °F 68% 30.17 in 2.5 mi WNW 10.4 mph 20.7 mph 0.00 in Snow Light Snow
3:14 AM 17.6 °F 4.3 °F 10.4 °F 73% 30.17 in 1.2 mi NW 12.7 mph 20.7 mph 0.00 in Snow Light Snow
3:22 AM 17.6 °F 3.2 °F 10.4 °F 73% 30.17 in 1.0 mi NW 15.0 mph 24.2 mph 0.00 in Snow Light Snow
3:33 AM 15.8 °F 2.7 °F 12.2 °F 86% 30.17 in 0.8 mi WNW 11.5 mph 19.6 mph 0.00 in Snow Light Snow
3:52 AM 16.0 °F -1.3 °F 8.1 °F 71% 30.25 in 1.0 mi WNW 20.7 mph 33.4 mph 0.00 in Snow Light Snow
3:59 AM 15.8 °F -1.9 °F 8.6 °F 73% 30.19 in 0.8 mi WNW 21.9 mph 34.5 mph 0.00 in Snow Light Snow
4:06 AM 15.8 °F 0.9 °F 8.6 °F 73% 30.20 in 1.2 mi WNW 15.0 mph 34.5 mph 0.00 in Snow Light Snow
4:35 AM 15.8 °F -1.9 °F 8.6 °F 73% 30.23 in 1.8 mi West 21.9 mph 31.1 mph 0.00 in Snow Light Snow
4:41 AM 15.8 °F -0.6 °F 6.8 °F 68% 30.24 in 3.0 mi West 18.4 mph 31.1 mph 0.00 in Snow Light Snow
4:52 AM 15.1 °F -1.6 °F 3.9 °F 61% 30.32 in 4.0 mi WNW 18.4 mph 31.1 mph 0.00 in Snow Blowing Snow
5:52 AM 14.0 °F -2.5 °F 3.9 °F 64% 30.37 in 7.0 mi WNW 17.3 mph 29.9 mph 0.00 in   Overcast
6:52 AM 12.9 °F -4.4 °F 1.0 °F 59% 30.40 in 7.0 mi NW 18.4 mph 25.3 mph 0.00 in   Mostly Cloudy
7:52 AM 12.9 °F -1.6 °F 1.0 °F 59% 30.41 in 9.0 mi NW 12.7 mph 31.1 mph 0.00 in   Clear
8:26 AM 12.2 °F -1.8 °F 1.4 °F 62% 30.37 in 10.0 mi NW 11.5 mph 20.7 mph N/A   Mostly Cloudy
8:52 AM 12.9 °F -2.2 °F 1.0 °F 59% 30.44 in 9.0 mi WNW 13.8 mph 25.3 mph N/A   Mostly Cloudy
8:59 AM 12.2 °F -2.5 °F 1.4 °F 62% 30.36 in 9.0 mi WNW 12.7 mph 25.3 mph N/A   Scattered Clouds
9:52 AM 12.9 °F 0.7 °F 1.0 °F 59% 30.49 in 10.0 mi West 9.2 mph 18.4 mph N/A   Clear
10:52 AM 17.1 °F 7.6 °F 1.0 °F 50% 30.50 in 10.0 mi Variable 6.9 mph - N/A   Clear
11:52 AM 18.0 °F 6.9 °F 1.9 °F 50% 30.46 in 10.0 mi West 9.2 mph - N/A   Clear
12:52 PM 19.9 °F 10.1 °F 3.0 °F 48% 30.45 in 10.0 mi West 8.1 mph 16.1 mph N/A   Clear
1:52 PM 21.0 °F 8.6 °F 3.0 °F 46% 30.47 in 10.0 mi West 12.7 mph 18.4 mph N/A   Clear
2:52 PM 21.9 °F 8.2 °F 3.9 °F 46% 30.48 in 10.0 mi West 16.1 mph 23.0 mph N/A   Clear
3:52 PM 21.0 °F 9.3 °F 5.0 °F 50% 30.49 in 10.0 mi WNW 11.5 mph 20.7 mph N/A   Clear
4:52 PM 19.0 °F 11.1 °F 5.0 °F 54% 30.52 in 10.0 mi Variable 5.8 mph - N/A   Clear
5:52 PM 18.0 °F 6.1 °F 5.0 °F 57% 30.53 in 10.0 mi WNW 10.4 mph - N/A   Clear
6:52 PM 16.0 °F 6.3 °F 5.0 °F 62% 30.53 in 10.0 mi Variable 6.9 mph - N/A   Clear
7:52 PM 16.0 °F 6.3 °F 5.0 °F 62% 30.58 in 10.0 mi WNW 6.9 mph - N/A   Clear
8:52 PM 16.0 °F 5.3 °F 3.9 °F 59% 30.59 in 10.0 mi WNW 8.1 mph - N/A   Clear
9:52 PM 15.1 °F 7.7 °F 3.0 °F 59% 30.57 in 10.0 mi Variable 4.6 mph - N/A   Clear
10:52 PM 10.0 °F - 3.9 °F 76% 30.56 in 10.0 mi Calm Calm - N/A   Clear
11:52 PM 10.9 °F - 5.0 °F 77% 30.54 in 10.0 mi Calm Calm - N/A   Clear